This is the latest recevied weather packets stored in our database for station/object KJ4YLO. If no packets are shown the sender has not sent any weather packets the latest 10 day(s).
| Time | Temp. | Humidity | Pressure | Rain* | Wind** | Luminosity | Snow |
|---|---|---|---|---|---|---|---|
| 1777663244 | 18.33° C | 47% | 1014.5 hPa | 0 mm | - | 360 W/m² | - |
| 1777662941 | 17.78° C | 51% | 1014.8 hPa | 0 mm | - | 302 W/m² | - |
| 1777662638 | 18.33° C | 47% | 1014.8 hPa | 0 mm | - | 377 W/m² | - |
| 1777662333 | 17.78° C | 48% | 1015.1 hPa | 0 mm | - | 255 W/m² | - |
| 1777662029 | 17.22° C | 49% | 1014.8 hPa | 0 mm | - | 275 W/m² | - |
| 1777661725 | 17.22° C | 48% | 1015.1 hPa | 0 mm | - | 276 W/m² | - |
| 1777661421 | 17.78° C | 46% | 1015.1 hPa | 0 mm | - | 308 W/m² | - |
| 1777661118 | 17.78° C | 46% | 1015.5 hPa | 0 mm | - | 269 W/m² | - |
| 1777660812 | 18.33° C | 46% | 1015.5 hPa | 0 mm | - | 345 W/m² | - |
| 1777660510 | 18.33° C | 47% | 1015.5 hPa | 0 mm | - | 409 W/m² | - |
| 1777660206 | 17.78° C | 46% | 1015.5 hPa | 0 mm | - | 339 W/m² | - |
| 1777659903 | 17.78° C | 43% | 1015.5 hPa | 0 mm | - | 410 W/m² | - |
| 1777659600 | 17.78° C | 44% | 1015.5 hPa | 0 mm | - | 329 W/m² | - |
| 1777659297 | 17.78° C | 46% | 1015.5 hPa | 0 mm | - | 325 W/m² | - |
| 1777658994 | 17.78° C | 47% | 1015.5 hPa | 0 mm | - | 262 W/m² | - |
| 1777658691 | 17.78° C | 43% | 1015.5 hPa | 0 mm | - | 268 W/m² | - |
| 1777658387 | 18.33° C | 43% | 1015.5 hPa | 0 mm | - | 264 W/m² | - |
| 1777658084 | 18.33° C | 43% | 1015.9 hPa | 0 mm | - | 314 W/m² | - |
| 1777657780 | 17.78° C | 44% | 1015.9 hPa | 0 mm | - | 553 W/m² | - |
| 1777657478 | 17.78° C | 46% | 1015.9 hPa | 0 mm | - | 343 W/m² | - |
| 1777657176 | 17.78° C | 46% | 1015.9 hPa | 0 mm | - | 305 W/m² | - |
| 1777656873 | 17.78° C | 48% | 1015.9 hPa | 0 mm | - | 323 W/m² | - |
| 1777656569 | 17.78° C | 46% | 1015.5 hPa | 0 mm | - | 308 W/m² | - |
| 1777656265 | 17.22° C | 44% | 1015.9 hPa | 0 mm | - | 278 W/m² | - |
| 1777655960 | 17.22° C | 47% | 1015.9 hPa | 0 mm | - | 354 W/m² | - |
* Rain latest hour (hover to see other rain measurements)
** Current wind speed in m/s (hover to see current wind gust speed)